Location: Unspecified
(0.0000°N, 0.0000°E)
Time: 06:54:37
(UTC+00:00)

N. Korean satellite - Pass Details

Date: 24 May 2019
Orbit: 455 x 508 km, 97.2° (Epoch: 15 September)

Event Time Altitude Azimuth Distance (km) Brightness Sun altitude
Rises 18:31:11 0° 201° (SSW) 2,606 10.3 -8.0°
Reaches altitude 10° 18:34:09 10° 228° (SW) 1,723 9.7 -8.7°
Maximum altitude 18:36:03 14° 259° (W) 1,510 10.0 -9.2°
Drops below altitude 10° 18:37:57 10° 290° (WNW) 1,722 11.0 -9.6°
Sets 18:40:55 0° 317° (NW) 2,602 11.6 -10.3°
